Pila Airport

Jump to: basic info | weather | runways | comments

Related pages: nearby airports | nearby navaids | notams | map

Basic information (top)

Codes: EPPI
Location: lon 53.169998, lat 16.712500, elev 259 ft / 79 m msl
Status: small_airport

Weather (top)

Current conditions for Poznań-Ławica Airport 45nm (84km) S (rec'd 2015/04/25 18:00Z):

EPPO 251800Z 21003KT CAVOK 20/01 Q1007

Airport forecast for Poznań-Ławica Airport 45nm (84km) S (rec'd 2015/04/25 18:34Z):

TAF EPPO 251730Z 2518/2618 22010KT CAVOK 
      BECMG 2523/2602 VRB02KT BKN030 
      TEMPO 2602/2609 5000 RA BR BKN005 BKN020 
      BECMG 2609/2611 22010KT PROB40 
      TEMPO 2612/2618 5000 TSRA BKN015CB

Runways (top)

03/21: 7,876 x 195 ft (2,401 x 59 m) — other (PEM) — lighted

Latest comments (top)

No comments yet for Pila Airport

More... (top)

See also NOTAMs and nearby airports and navaids, or visit the Pila Airport page at the main OurAirports website..